RH
11 10 13 16 19 25 29 32 37 37 33 34 42 45 47 62 72 67 65 65 63 68 71 71 76 77 79 82 77 77 73 61 59 55 49 48 49 52 51 51 53 50 50 47 43 43 41 40 40 38 36 35 33 35 42 46 50 54 54 53 53 52 51 46 46 48 49 50 53 54 53 53 54 53 49 47 46 44 44 40 36 38 38 36 35 34
11 10 13 14 17 26 28 28 36 39 33 31 39 46 45 51 61 64 64 65 63 71 78 73 75 78 79 83 81 80 79 70 64 61 53 46 46 51 51 52 53 51 53 50 44 44 43 41 39 38 37 35 33 34 39 44 48 52 53 53 52 52 50 47 47 49 50 50 52 53 52 51 52 52 51 49 49 48 44 38 37 40 40 37 36 35
13 11 13 14 17 27 31 32 36 36 33 31 36 43 44 44 53 61 65 67 64 69 79 76 75 79 80 83 85 82 83 78 68 62 56 48 44 46 50 52 52 53 55 51 46 45 45 43 40 38 37 35 35 36 39 42 45 49 52 52 51 50 49 48 46 46 50 51 52 53 52 52 52 50 49 49 51 49 45 40 38 41 39 38 37 38
15 12 13 14 17 25 33 36 36 35 33 29 31 37 40 42 49 56 65 71 67 70 82 80 76 81 81 81 84 82 83 83 74 69 64 55 46 43 46 48 50 53 51 47 46 46 46 44 40 39 38 37 39 40 40 40 43 46 50 50 49 49 48 47 43 43 47 49 51 53 52 52 52 50 49 49 50 49 47 44 40 40 38 39 39 40
14 13 13 14 17 25 33 36 37 37 31 23 28 35 36 39 44 48 58 69 68 67 72 72 77 87 85 81 83 83 84 83 80 78 71 61 52 47 46 45 47 51 46 44 46 45 46 45 41 41 41 40 41 42 41 40 41 43 47 48 46 46 47 46 41 40 43 43 46 50 50 51 51 50 49 49 50 49 47 46 43 40 38 40 42 40
13 16 15 15 21 29 33 35 38 37 29 21 26 33 37 41 44 46 52 62 67 65 61 61 71 83 83 80 82 84 84 83 82 78 71 64 57 50 48 45 45 47 44 43 47 46 44 43 43 44 43 42 42 42 42 41 40 41 45 46 44 43 45 45 39 37 38 39 42 46 47 48 50 51 48 48 49 48 48 47 44 42 38 41 45 41
13 20 21 21 29 34 32 33 38 37 32 30 29 31 38 39 40 45 49 56 63 63 59 58 64 76 84 80 77 81 83 82 82 81 75 70 64 56 51 47 44 45 43 44 52 52 45 42 43 43 43 43 44 43 43 42 42 42 43 44 44 42 43 43 38 35 36 37 38 42 45 48 50 50 48 50 53 49 50 50 46 45 42 41 45 43
16 25 26 25 30 32 31 32 37 35 34 39 36 33 37 33 30 38 44 50 55 55 54 55 60 70 79 78 75 77 82 83 83 85 81 74 70 64 56 51 46 44 44 45 52 54 48 43 42 43 42 42 43 44 44 44 44 45 44 42 42 42 43 43 37 34 35 35 35 39 43 47 49 49 49 56 59 52 49 49 45 47 44 41 46 46
16 25 28 25 24 25 26 29 34 34 34 40 39 36 37 30 25 30 36 42 46 49 51 52 58 66 70 76 79 77 80 84 82 82 81 76 74 70 64 59 49 44 47 49 52 53 52 47 41 40 41 40 43 45 43 44 44 46 46 42 40 40 42 41 36 33 34 33 34 37 41 43 46 49 49 53 56 50 47 48 47 49 46 42 46 45
22 23 24 23 22 22 23 25 29 32 32 38 41 36 32 25 21 24 30 38 42 45 49 49 55 64 67 77 85 81 79 80 76 73 76 77 77 74 71 67 56 47 47 51 53 54 55 51 42 39 39 39 43 45 43 43 44 46 46 44 39 38 40 39 35 33 32 30 32 38 42 42 43 48 48 48 50 48 48 49 48 48 48 46 45 43
30 25 24 23 22 22 23 23 26 30 31 37 40 36 31 25 20 21 24 33 39 43 46 47 50 57 64 73 80 79 74 71 70 69 72 75 77 76 73 71 64 53 48 51 56 56 56 53 44 38 38 39 41 44 44 42 43 44 45 45 41 37 39 38 34 32 31 29 31 38 43 43 44 46 45 47 48 46 45 47 48 46 47 49 48 45
29 28 27 23 21 23 26 26 27 29 31 36 37 35 34 27 21 23 25 30 37 41 44 47 48 52 60 65 67 70 68 64 67 71 72 72 74 74 73 72 70 62 53 52 56 56 56 54 46 40 39 39 40 42 44 42 43 43 43 45 42 37 38 38 35 33 32 32 33 38 42 43 44 45 45 46 46 44 43 45 50 48 45 48 49 47
27 27 25 22 20 23 27 30 31 28 27 31 31 31 35 33 30 30 30 31 34 39 44 48 48 49 55 59 59 62 66 64 65 69 70 70 70 69 68 70 72 70 63 56 53 55 54 50 45 41 40 40 40 41 43 42 42 42 41 44 43 38 37 38 36 34 34 35 35 37 42 43 43 44 45 45 44 43 44 45 50 50 46 46 47 49
27 25 22 21 21 22 24 27 27 23 21 23 25 27 32 37 39 38 36 33 32 35 43 48 48 48 53 58 57 58 63 64 64 68 68 66 67 67 66 69 71 71 71 65 56 53 53 48 44 42 41 41 41 41 42 42 43 42 40 42 44 40 37 37 38 36 36 38 36 35 40 44 45 45 44 44 45 46 46 46 48 49 48 47 47 48
30 28 24 22 22 22 21 20 22 21 18 17 18 23 31 37 39 39 37 34 31 33 41 48 50 50 52 57 59 61 64 65 66 70 69 65 64 66 67 69 70 70 73 73 63 55 53 51 46 44 44 43 43 42 42 42 43 43 40 41 43 42 38 37 38 38 36 37 39 35 36 42 46 48 47 46 48 49 48 48 47 48 50 52 54 51
32 32 29 25 23 22 19 16 19 23 21 16 14 18 27 34 36 36 36 35 33 33 37 42 47 49 53 58 62 67 69 66 65 69 71 66 61 63 66 68 69 70 72 74 69 59 53 51 49 47 45 45 47 46 43 42 42 42 43 42 42 42 41 39 38 38 37 37 40 37 35 40 45 48 50 50 51 51 50 50 50 51 50 52 59 57
33 33 32 29 24 22 20 17 17 20 25 22 16 13 19 27 33 34 35 36 36 37 36 36 38 45 52 56 58 62 65 64 62 63 67 68 62 59 62 65 67 69 72 72 72 67 58 52 51 51 48 48 50 49 46 44 43 43 44 44 43 41 41 40 39 39 39 37 39 38 36 39 43 46 48 52 55 53 51 51 51 55 53 50 55 56
37 36 35 33 28 24 21 19 17 17 25 27 21 15 15 20 26 30 32 34 36 39 39 34 34 40 48 55 57 56 59 63 61 58 62 68 67 62 60 63 66 68 71 72 73 73 67 56 52 53 52 52 54 53 49 47 46 45 45 44 42 40 40 41 41 42 41 39 39 39 38 38 42 44 45 49 54 53 52 51 50 52 53 50 51 52
41 39 37 34 32 27 21 20 19 16 19 25 26 24 19 19 20 21 26 32 36 37 38 36 35 36 44 55 59 55 56 63 62 57 59 64 68 68 62 61 66 68 70 72 73 75 72 63 59 57 55 55 57 55 51 50 48 46 46 43 40 39 39 38 41 43 41 41 40 40 41 40 42 44 45 46 49 49 50 53 55 54 52 53 54 52
39 40 39 35 34 31 23 20 20 18 17 19 25 27 23 22 22 21 19 25 34 36 37 37 34 35 43 50 55 57 58 62 60 58 61 61 64 68 65 61 65 69 69 70 72 75 74 69 67 64 60 59 58 56 54 53 52 50 47 43 40 42 42 38 39 43 43 42 42 42 43 42 42 43 44 44 45 48 49 50 55 59 57 59 62 56
35 40 41 39 37 33 28 22 18 19 19 16 19 25 26 23 24 26 21 19 25 31 35 35 33 44 54 54 56 61 58 54 54 57 63 63 63 65 66 64 67 69 69 70 71 74 74 72 70 68 66 64 62 60 58 58 60 58 54 53 50 47 46 41 39 42 44 44 44 44 44 44 43 42 42 44 44 46 49 49 51 55 56 59 62 58
34 39 41 41 40 36 34 28 19 21 26 21 16 18 25 27 26 27 24 18 16 21 30 33 36 51 62 61 61 59 55 53 52 54 60 65 66 66 66 68 70 71 71 72 74 74 75 74 72 71 70 69 67 66 63 64 65 62 58 61 58 50 48 46 44 43 44 44 45 45 46 45 44 43 42 43 44 44 47 48 49 51 53 58 60 57
32 36 40 42 43 40 37 32 26 26 29 30 23 16 20 27 28 27 25 23 19 15 19 26 37 51 57 57 58 54 52 53 48 48 55 62 66 68 67 67 70 73 73 73 75 76 77 78 76 74 73 72 72 71 69 70 68 61 55 56 54 50 51 50 47 47 47 46 46 45 45 45 45 45 43 42 44 44 45 47 48 50 53 57 59 56
30 33 38 42 44 43 38 34 31 27 26 31 31 24 20 21 24 24 22 25 25 20 19 21 32 49 54 51 53 50 48 48 43 44 51 58 65 68 67 67 69 72 73 74 76 76 77 80 80 78 75 73 73 73 72 72 71 66 61 58 55 54 55 53 49 50 52 49 47 47 46 45 45 46 45 43 43 43 45 47 47 49 53 54 55 55
33 33 38 42 44 44 42 38 33 27 24 28 31 30 27 24 25 26 23 25 26 25 25 21 27 49 56 50 50 48 44 44 44 45 50 57 63 67 69 70 69 70 73 74 75 76 78 80 79 77 75 72 71 72 72 71 72 72 68 64 61 60 60 57 51 49 48 44 43 45 47 47 47 46 46 46 44 43 44 44 45 48 53 56 55 55
34 35 39 44 46 48 50 47 40 33 28 27 30 33 34 32 31 32 30 29 29 29 30 27 34 54 60 53 53 51 43 42 44 47 52 58 64 68 71 72 69 69 72 73 74 76 78 79 77 75 75 75 74 75 75 72 71 74 71 66 63 61 61 59 53 50 49 44 40 39 42 47 48 47 47 46 45 44 43 43 43 44 49 59 61 56
33 37 39 43 47 50 54 52 46 41 35 31 33 36 37 35 33 34 33 34 35 32 29 30 37 50 56 54 57 57 51 45 44 48 54 57 62 67 72 73 71 71 73 73 75 76 78 79 78 77 77 78 78 78 78 76 74 74 73 69 65 61 59 58 55 54 53 51 48 43 40 43 47 49 49 49 47 45 43 43 44 43 46 55 59 51
33 37 36 38 44 48 51 51 47 45 43 41 40 38 38 35 33 34 35 36 39 35 32 37 40 41 46 48 51 56 56 50 47 50 55 57 59 64 69 71 72 73 74 75 75 75 76 78 79 78 78 78 78 79 78 76 74 75 76 75 71 67 66 66 64 60 57 55 55 53 50 49 49 49 51 52 51 48 46 45 44 44 46 48 48 45
31 35 35 35 38 41 46 50 49 47 46 46 45 42 41 39 36 37 35 33 36 37 37 44 45 41 44 48 48 51 53 53 53 53 54 56 59 64 68 70 71 73 75 76 76 75 74 76 78 79 80 79 78 78 76 72 71 74 76 77 75 73 73 73 73 71 69 65 62 62 62 60 58 55 54 54 54 54 53 51 49 48 48 47 45 46
30 32 34 35 37 39 42 47 48 47 46 47 46 44 45 44 43 42 39 38 42 43 39 43 46 45 48 53 55 54 52 55 56 53 52 55 59 65 69 70 70 72 73 76 77 75 76 77 77 78 80 80 78 75 73 72 70 70 72 73 75 77 78 77 77 77 78 76 74 73 73 72 68 65 62 60 57 56 56 57 59 57 54 53 49 47
33 32 33 35 37 39 40 44 47 48 48 48 46 44 44 44 46 47 46 48 51 46 39 37 42 48 51 53 55 55 53 53 52 52 52 52 55 63 68 70 72 72 72 74 75 74 76 77 75 76 78 78 78 77 74 72 71 70 70 71 73 76 79 80 80 81 81 80 80 80 81 81 79 76 75 74 70 65 60 59 63 64 63 62 59 55
35 35 35 34 35 36 36 39 43 45 47 48 46 44 44 44 45 48 52 55 54 49 44 41 43 54 60 58 55 55 55 55 53 52 51 48 51 60 67 69 71 72 72 73 73 72 73 73 73 76 77 76 79 79 77 75 74 73 73 74 73 75 78 80 82 83 84 85 85 86 85 85 84 83 83 84 83 81 76 70 67 67 67 66 66 64
37 37 38 37 35 35 35 38 41 43 44 45 44 43 46 49 48 50 55 56 51 50 52 51 52 59 64 64 62 58 57 58 55 51 49 46 47 55 64 69 71 71 71 70 71 71 70 71 71 73 74 74 76 78 79 77 75 74 75 76 77 79 80 81 83 83 84 86 87 89 90 89 88 86 85 85 87 88 88 85 78 74 72 70 69 69
40 38 38 39 38 37 38 39 42 43 43 45 49 50 53 56 56 58 59 54 48 50 53 55 60 66 69 72 70 60 57 59 56 52 50 49 49 54 60 65 67 69 70 70 70 71 70 69 70 70 70 70 71 74 77 76 74 73 73 76 79 83 84 84 84 83 83 84 84 86 89 90 90 90 88 87 87 87 89 90 87 84 81 77 75 73
39 39 38 41 42 39 39 41 45 50 49 49 51 52 53 55 54 54 56 52 49 49 51 55 64 69 70 72 67 58 56 57 54 53 52 51 54 56 57 61 64 66 68 69 69 69 69 67 67 68 68 69 69 71 72 72 72 72 71 72 76 80 84 85 84 84 83 83 83 84 86 89 91 89 85 86 88 88 90 89 86 87 86 82 79 78
34 38 39 42 43 40 39 43 48 53 54 51 49 47 46 47 47 47 52 54 52 49 48 55 64 66 63 60 58 56 55 54 52 52 52 53 57 58 56 58 62 64 66 68 66 64 64 64 64 65 66 67 68 69 70 71 72 71 68 67 68 72 77 80 80 80 82 82 82 83 85 87 88 85 82 83 85 87 90 89 85 85 87 86 84 83
29 35 38 42 44 41 40 45 47 49 52 54 54 50 47 46 47 49 54 57 54 50 50 55 59 62 61 57 54 53 52 53 54 51 50 55 59 59 58 58 59 63 65 64 62 60 59 59 59 60 62 64 66 67 68 69 70 70 68 65 65 68 72 75 76 76 78 81 83 85 85 84 84 83 83 84 85 85 86 85 83 85 88 89 88 85
27 31 35 41 45 43 42 46 47 49 55 61 61 54 48 45 45 47 51 56 57 54 54 57 57 59 63 62 58 55 53 55 57 53 54 60 61 57 58 58 57 59 60 60 59 57 55 54 53 53 56 61 65 67 67 66 66 68 68 67 66 67 67 70 74 76 77 79 82 84 84 83 83 82 80 81 85 86 84 81 82 86 88 89 88 87
21 24 26 31 37 43 47 49 48 51 60 66 63 56 50 47 46 45 48 56 62 59 57 60 59 61 66 68 65 63 61 61 60 59 61 65 61 57 57 56 55 55 54 55 57 56 56 57 54 52 54 57 61 63 64 63 63 63 64 64 64 67 70 71 74 76 77 77 78 79 80 81 82 80 75 75 78 80 79 78 80 83 85 84 85 86
24 25 27 26 29 37 43 45 47 55 62 62 56 54 52 48 46 46 49 57 63 59 56 59 60 62 69 72 69 68 68 67 64 64 66 66 62 59 58 56 55 55 54 55 56 56 57 58 56 54 54 55 57 60 62 63 64 64 63 61 62 66 70 73 74 76 76 76 75 76 78 80 81 78 74 72 73 71 70 72 75 77 78 79 82 85
28 26 27 26 27 32 36 39 46 57 61 56 51 52 49 45 44 47 52 60 62 57 55 58 60 62 66 71 72 72 72 70 68 69 71 69 66 65 64 61 57 54 54 55 55 55 54 53 53 54 56 56 57 58 58 60 63 64 63 61 64 65 64 65 68 70 72 74 74 75 79 80 80 79 76 73 71 68 65 67 71 74 73 74 79 84
34 29 26 24 26 31 33 36 46 56 58 52 50 50 44 44 53 56 55 58 58 55 56 60 63 63 61 63 68 72 74 73 72 72 71 68 67 69 71 73 69 62 57 55 54 58 59 56 53 54 57 60 61 61 59 55 55 59 60 59 62 65 62 59 58 60 63 67 70 73 79 81 81 79 78 75 72 69 66 66 67 70 70 70 73 77
36 33 35 33 30 29 29 32 43 55 56 49 49 52 48 50 60 60 54 54 56 57 59 61 64 66 62 61 66 71 75 75 75 75 72 67 66 66 70 77 79 76 74 70 65 67 68 65 60 58 60 63 64 66 64 56 51 52 53 53 56 58 56 53 52 53 57 62 66 71 77 82 83 81 78 77 74 71 69 67 66 68 70 70 69 69
33 35 47 48 38 36 40 44 48 54 53 46 44 48 48 48 53 53 51 52 54 57 60 63 67 67 64 66 71 74 76 78 79 79 78 75 73 69 67 72 77 78 80 80 77 77 75 70 67 65 64 64 61 62 64 61 59 58 53 50 51 51 50 53 55 56 59 62 66 72 76 79 81 82 81 79 76 72 70 68 68 68 69 69 69 68
38 38 45 45 38 38 44 46 45 47 47 42 37 38 39 41 44 46 48 50 50 54 59 65 70 69 64 67 74 75 77 80 79 78 78 78 78 75 71 71 72 73 76 75 75 76 75 71 69 67 67 66 61 57 60 63 66 65 59 54 52 50 52 59 62 63 67 70 70 72 75 76 76 77 78 77 73 70 67 65 66 67 67 68 69 69
37 31 33 38 39 38 38 38 38 42 43 40 35 33 33 33 35 38 42 45 48 51 54 57 65 68 66 69 73 74 77 80 80 81 81 78 77 75 72 71 68 69 72 72 71 72 73 72 72 70 69 67 62 60 63 64 62 60 60 63 63 58 59 66 67 67 72 75 74 74 76 76 74 73 71 69 67 65 63 63 64 66 66 66 68 69
39 30 30 37 39 39 44 47 45 42 43 43 42 42 38 34 32 32 34 38 42 46 49 51 57 62 64 67 71 72 73 75 77 82 85 84 82 78 74 71 68 67 70 69 69 73 75 74 74 72 70 68 66 67 70 68 64 61 62 64 61 55 56 65 70 71 75 77 76 77 77 74 70 67 64 60 59 60 61 61 62 62 61 60 60 61
52 41 37 40 40 41 49 53 48 43 42 42 44 48 46 41 38 35 33 34 36 38 41 45 51 56 59 64 67 68 70 71 71 74 78 83 87 86 81 76 71 69 70 69 68 69 71 70 71 72 71 68 66 68 73 74 69 65 63 60 54 49 51 57 62 66 71 73 72 73 74 70 64 61 59 57 55 54 55 57 59 59 57 56 56 55
50 43 40 42 44 46 50 52 50 49 48 45 45 46 44 42 42 41 39 38 38 37 37 39 42 47 53 60 64 65 67 70 69 68 70 76 82 86 86 83 79 75 74 74 74 74 73 70 69 71 72 70 66 67 73 76 74 70 64 57 55 56 57 59 60 61 64 67 68 69 69 68 63 59 58 57 55 51 47 48 52 53 51 49 50 51
41 38 39 44 46 48 54 59 58 55 55 55 52 50 47 45 45 45 43 43 42 41 41 41 41 42 45 50 55 59 63 68 69 68 68 69 72 76 81 84 84 84 81 79 80 80 76 73 71 70 70 68 65 64 67 70 73 74 72 64 59 58 59 60 61 61 60 63 65 63 65 66 63 59 57 58 59 57 50 44 43 43 40 39 40 41
41 39 41 46 49 50 54 59 59 55 53 53 51 48 47 46 46 47 48 48 48 46 46 46 47 47 46 46 47 49 53 60 67 70 69 67 66 68 72 78 84 87 86 84 83 81 76 74 74 73 72 69 64 60 60 62 64 68 71 69 63 60 59 61 61 60 59 59 55 51 55 59 58 56 55 53 54 58 58 53 49 45 42 39 37 36